EW3298 Weather Reports


time (UTC)temp
C
wind
direction
speed
KPH
gust
KPH
rain 1hr
cm
rain 24hr
cm
rain mn
cm
humidity
%
barometer
mb
20260507033048 26 198 0.0 0.0 0.00 0.00 0.00 29 1012.5
20260507033024 26 198 0.0 0.0 0.00 0.00 0.00 29 1011.9
20260507031541 26 198 0.0 3.2 0.00 0.00 0.00 29 1012.2
20260507031508 26 198 0.0 3.2 0.00 0.00 0.00 29 1011.8
20260507030042 27 198 0.0 3.2 0.00 0.00 0.00 29 1012.0
20260507030017 27 198 0.0 3.2 0.00 0.00 0.00 28 1011.6
20260507024542 27 163 1.6 12.9 0.00 0.00 0.00 27 1011.8
20260507024521 27 180 1.6 12.9 0.00 0.00 0.00 26 1011.4
20260507023041 27 165 1.6 11.3 0.00 0.00 0.00 25 1011.5
20260507023028 27 142 3.2 11.3 0.00 0.00 0.00 25 1011.2
20260507021543 28 132 6.4 9.7 0.00 0.00 0.00 25 1011.3
20260507021514 28 135 4.8 9.7 0.00 0.00 0.00 24 1011.0
20260507020042 28 140 4.8 12.9 0.00 0.00 0.00 24 1011.3
20260507020012 28 150 3.2 14.5 0.00 0.00 0.00 24 1011.0
20260507014548 29 151 8.0 16.1 0.00 0.00 0.00 22 1011.2
20260507014520 29 128 8.0 16.1 0.00 0.00 0.00 22 1010.8
20260507013038 30 139 8.0 14.5 0.00 0.00 0.00 22 1011.1
20260507013033 30 134 6.4 14.5 0.00 0.00 0.00 21 1010.8
20260507011541 30 115 6.4 12.9 0.00 0.00 0.00 21 1011.1
20260507011536 30 126 6.4 12.9 0.00 0.00 0.00 21 1010.8
20260507010037 30 118 8.0 16.1 0.00 0.00 0.00 22 1011.0
20260507010013 30 197 8.0 16.1 0.00 0.00 0.00 21 1010.7
20260507004539 30 88 8.0 12.9 0.00 0.00 0.00 21 1011.0
20260507004518 30 103 6.4 16.1 0.00 0.00 0.00 21 1010.7
20260507003036 30 108 11.3 19.3 0.00 0.00 0.00 21 1010.9
20260507003020 30 121 9.7 19.3 0.00 0.00 0.00 20 1010.6
20260507001540 30 119 8.0 16.1 0.00 0.00 0.00 21 1010.9
20260507000036 30 142 8.0 14.5 0.00 0.00 0.00 21 1010.8
20260507000027 30 133 8.0 14.5 0.00 0.00 0.00 20 1010.4
20260506234533 30 113 9.7 14.5 0.00 0.00 0.00 20 1010.9
20260506234516 30 99 8.0 14.5 0.00 0.00 0.00 20 1010.6
20260506233034 31 148 9.7 16.1 0.00 0.00 0.00 20 1010.9
20260506233029 31 133 9.7 16.1 0.00 0.00 0.00 19 1010.6
20260506231530 31 189 1.6 14.5 0.00 0.00 0.00 20 1011.0
20260506231526 31 213 1.6 14.5 0.00 0.00 0.00 20 1010.7
20260506230029 31 116 6.4 14.5 0.00 0.00 0.00 20 1011.1
20260506230027 31 157 6.4 14.5 0.00 0.00 0.00 20 1010.8
20260506224528 31 134 6.4 11.3 0.00 0.00 0.00 20 1011.3
20260506224524 31 181 6.4 12.9 0.00 0.00 0.00 19 1011.0
20260506223026 30 140 6.4 16.1 0.00 0.00 0.00 20 1011.6
20260506223018 31 105 9.7 16.1 0.00 0.00 0.00 20 1011.2
20260506221524 30 105 8.0 14.5 0.00 0.00 0.00 22 1011.8
20260506221522 30 144 8.0 14.5 0.00 0.00 0.00 21 1011.5
20260506220031 30 129 11.3 16.1 0.00 0.00 0.00 22 1012.1
20260506220026 30 128 9.7 14.5 0.00 0.00 0.00 22 1011.7
20260506214528 30 39 0.0 9.7 0.00 0.00 0.00 22 1011.9
20260506214519 30 28 0.0 9.7 0.00 0.00 0.00 22 1012.3
20260506213020 30 91 4.8 12.9 0.00 0.00 0.00 22 1012.1
20260506213016 30 82 4.8 11.3 0.00 0.00 0.00 22 1012.6
20260506211519 30 95 3.2 11.3 0.00 0.00 0.00 21 1012.3
20260506211514 30 95 1.6 11.3 0.00 0.00 0.00 22 1012.8
20260506210024 30 91 3.2 11.3 0.00 0.00 0.00 22 1012.5
20260506210013 30 91 3.2 11.3 0.00 0.00 0.00 23 1012.9
20260506204526 29 94 4.8 9.7 0.00 0.00 0.00 22 1012.7
20260506204509 29 94 4.8 9.7 0.00 0.00 0.00 23 1013.2
20260506203034 29 109 4.8 12.9 0.00 0.00 0.00 23 1012.8
20260506203018 29 97 6.4 12.9 0.00 0.00 0.00 23 1013.3
20260506201521 28 115 1.6 11.3 0.00 0.00 0.00 23 1013.1
20260506201507 28 115 3.2 11.3 0.00 0.00 0.00 24 1013.6
20260506200027 28 198 3.2 9.7 0.00 0.00 0.00 24 1013.4
20260506200005 28 206 3.2 9.7 0.00 0.00 0.00 25 1013.9
20260506194524 28 192 1.6 6.4 0.00 0.00 0.00 25 1013.8
20260506194504 28 192 0.0 8.0 0.00 0.00 0.00 25 1014.1
20260506193014 28 226 0.0 3.2 0.00 0.00 0.00 25 1014.1
20260506193001 28 226 0.0 3.2 0.00 0.00 0.00 26 1014.3
20260506191608 27 149 0.0 6.4 0.00 0.00 0.00 25 1014.5
20260506191518 27 149 1.6 6.4 0.00 0.00 0.00 24 1014.2
20260506190056 27 176 1.6 8.0 0.00 0.00 0.00 26 1014.7
20260506190032 27 248 3.2 8.0 0.00 0.00 0.00 26 1014.5
20260506184553 27 170 1.6 8.0 0.00 0.00 0.00 27 1014.9
20260506184525 27 223 1.6 8.0 0.00 0.00 0.00 27 1014.7
20260506183053 26 78 0.0 6.4 0.00 0.00 0.00 29 1015.1
20260506183028 26 78 0.0 4.8 0.00 0.00 0.00 29 1014.9
20260506181556 25 58 3.2 8.0 0.00 0.00 0.00 29 1015.2
20260506181518 25 73 3.2 6.4 0.00 0.00 0.00 30 1015.0
20260506180021 25 25 1.6 6.4 0.00 0.00 0.00 31 1015.0
20260506174538 25 99 3.2 8.0 0.00 0.00 0.00 32 1015.4
20260506174527 25 92 3.2 6.4 0.00 0.00 0.00 31 1015.1
20260506173040 25 46 3.2 9.7 0.00 0.00 0.00 31 1015.3
20260506173034 25 26 3.2 8.0 0.00 0.00 0.00 31 1015.1
20260506171531 23 163 1.6 8.0 0.00 0.00 0.00 34 1015.4
20260506171517 23 163 1.6 8.0 0.00 0.00 0.00 34 1015.3
20260506170026 23 219 4.8 11.3 0.00 0.00 0.00 35 1015.4
20260506170021 23 223 4.8 9.7 0.00 0.00 0.00 35 1015.3
20260506164524 23 253 1.6 9.7 0.00 0.00 0.00 36 1015.5
20260506163042 22 203 3.2 9.7 0.00 0.00 0.00 36 1015.3
20260506163018 22 209 3.2 11.3 0.00 0.00 0.00 36 1015.5
20260506161528 22 222 1.6 8.0 0.00 0.00 0.00 37 1015.4
20260506161515 22 222 1.6 9.7 0.00 0.00 0.00 37 1015.5
20260506160017 22 300 3.2 9.7 0.00 0.00 0.00 38 1015.2
20260506160013 22 299 3.2 11.3 0.00 0.00 0.00 39 1015.4
20260506154537 21 244 1.6 8.0 0.00 0.00 0.00 39 1015.1
20260506154508 21 239 1.6 9.7 0.00 0.00 0.00 40 1015.4
20260506153029 21 182 1.6 11.3 0.00 0.00 0.00 41 1015.0
20260506153009 21 219 1.6 12.9 0.00 0.00 0.00 42 1015.3
20260506151537 20 257 6.4 17.7 0.00 0.00 0.00 41 1015.0
20260506151501 20 257 6.4 12.9 0.00 0.00 0.00 42 1015.3
20260506150059 20 12 1.6 17.7 0.00 0.00 0.00 43 1015.2
20260506150026 20 234 3.2 17.7 0.00 0.00 0.00 42 1015.0
20260506144605 19 275 6.4 19.3 0.00 0.00 0.00 43 1015.2
20260506144522 19 178 4.8 17.7 0.00 0.00 0.00 42 1015.0
20260506143050 19 240 4.8 16.1 0.00 0.00 0.00 44 1015.1
20260506143031 19 292 4.8 16.1 0.00 0.00 0.00 43 1014.9
20260506141545 18 338 6.4 14.5 0.00 0.00 0.00 45 1014.9
20260506141531 18 334 4.8 19.3 0.00 0.00 0.00 44 1014.5
20260506140042 18 202 4.8 12.9 0.00 0.00 0.00 46 1014.8
20260506140033 18 255 4.8 12.9 0.00 0.00 0.00 45 1014.3
20260506134538 17 267 1.6 11.3 0.00 0.00 0.00 48 1014.6
20260506134528 17 186 1.6 12.9 0.00 0.00 0.00 47 1014.1
20260506133041 17 236 1.6 12.9 0.00 0.00 0.00 49 1014.5
20260506133022 17 267 3.2 12.9 0.00 0.00 0.00 48 1014.1
20260506131533 17 309 3.2 12.9 0.00 0.00 0.00 50 1014.4
20260506131531 17 259 3.2 12.9 0.00 0.00 0.00 49 1013.9
20260506130030 17 231 4.8 19.3 0.00 0.00 0.00 50 1014.1
20260506130026 17 215 3.2 14.5 0.00 0.00 0.00 50 1013.7
20260506124530 17 277 4.8 14.5 0.00 0.00 0.00 50 1013.5
20260506124526 17 192 4.8 14.5 0.00 0.00 0.00 50 1014.0
20260506123025 17 279 1.6 16.1 0.00 0.00 0.00 50 1013.8
20260506123023 17 196 1.6 14.5 0.00 0.00 0.00 50 1013.4
20260506121527 17 320 6.4 19.3 0.00 0.00 0.00 50 1013.2
20260506120028 17 345 6.4 17.7 0.00 0.00 0.00 49 1013.2
20260506114527 17 284 4.8 17.7 0.00 0.00 0.00 49 1013.1
20260506114520 17 234 4.8 17.7 0.00 0.00 0.00 49 1013.4
20260506113021 17 331 6.4 22.5 0.00 0.00 0.00 49 1013.5
20260506113009 17 310 6.4 22.5 0.00 0.00 0.00 49 1013.0
20260506111517 17 271 8.0 19.3 0.00 0.00 0.00 48 1013.4
20260506111515 17 319 6.4 17.7 0.00 0.00 0.00 48 1013.1
20260506110019 17 265 6.4 19.3 0.00 0.00 0.00 48 1013.3
20260506110009 17 275 6.4 19.3 0.00 0.00 0.00 48 1012.9
20260506104515 17 327 8.0 20.9 0.00 0.00 0.00 48 1013.4
20260506104508 17 306 8.0 20.9 0.00 0.00 0.00 48 1013.0
20260506103014 17 355 8.0 22.5 0.00 0.00 0.00 49 1013.2
20260506103010 17 285 6.4 22.5 0.00 0.00 0.00 49 1012.9
20260506101514 17 339 8.0 17.7 0.00 0.00 0.00 50 1013.2
20260506101511 17 9 6.4 17.7 0.00 0.00 0.00 49 1012.9
20260506100013 17 249 6.4 14.5 0.00 0.00 0.00 50 1013.2
20260506100010 17 321 6.4 14.5 0.00 0.00 0.00 49 1012.9
20260506094511 17 325 4.8 19.3 0.00 0.00 0.00 50 1013.2
20260506094508 17 352 4.8 19.3 0.00 0.00 0.00 49 1013.0
20260506093011 17 339 3.2 12.9 0.00 0.00 0.00 50 1013.4
20260506091512 17 328 6.4 20.9 0.00 0.00 0.00 50 1013.4
20260506091508 17 344 6.4 20.9 0.00 0.00 0.00 49 1013.1
20260506090018 17 328 9.7 20.9 0.00 0.00 0.00 49 1013.3
20260506090013 17 323 9.7 20.9 0.00 0.00 0.00 49 1013.0
20260506084522 17 297 8.0 17.7 0.00 0.00 0.00 49 1013.4
20260506084512 17 313 6.4 19.3 0.00 0.00 0.00 48 1013.1
20260506083017 18 321 9.7 25.7 0.00 0.00 0.00 48 1013.1
20260506083005 18 5 9.7 25.7 0.00 0.00 0.00 48 1013.5
20260506081512 18 256 11.3 24.1 0.00 0.00 0.00 47 1013.0
20260506081505 18 339 12.9 20.9 0.00 0.00 0.00 48 1013.4
20260506073116 18 311 11.3 35.4 0.00 0.00 0.00 47 1013.3
20260506073010 18 302 11.3 33.8 0.00 0.00 0.00 46 1013.0
20260506071600 18 355 14.5 37.0 0.00 0.00 0.00 46 1013.3
20260506071518 18 331 16.1 35.4 0.00 0.00 0.00 45 1012.9
20260506061551 18 345 9.7 29.0 0.00 0.00 0.00 44 1012.7
20260506061514 18 296 11.3 27.4 0.00 0.00 0.00 44 1012.5
20260506044549 19 342 9.7 25.7 0.00 0.00 0.00 43 1011.7
20260506044520 19 311 8.0 25.7 0.00 0.00 0.00 42 1011.5
20260506043041 20 300 11.3 32.2 0.00 0.00 0.00 42 1011.4
20260506043016 20 298 11.3 27.4 0.00 0.00 0.00 42 1011.1
20260506041550 20 307 9.7 29.0 0.00 0.00 0.00 42 1011.2
20260506041519 20 342 8.0 27.4 0.00 0.00 0.00 41 1010.9
20260506040041 20 278 11.3 25.7 0.00 0.00 0.00 41 1011.0
20260506040018 20 345 8.0 25.7 0.00 0.00 0.00 40 1010.6
20260506034544 20 320 12.9 22.5 0.00 0.00 0.00 40 1010.8
20260506034528 20 249 12.9 22.5 0.00 0.00 0.00 40 1010.4